Salvador Airport, Brazil

1:55 AM BRT on February 13, 2016 (GMT -0300)
DEP. L. E. Magalhaes International

Weather History for SBSV - October, 2012

Change the Weather History Date:

Sunday, October 21, 2012

  Actual Average Record
Temperature  
Mean Temperature 79 °F -  
Max Temperature 82 °F 82 °F 87 °F (2004)
Min Temperature 76 °F 73 °F 71 °F (2003)
Cooling Degree Days 14    
Growing Degree Days 29 (Base 50)    
Moisture  
Dew Point 68 °F    
Average Humidity 68    
Maximum Humidity 78    
Minimum Humidity 54    
Precipitation  
Precipitation 0.00 in - - ()
Sea Level Pressure  
Sea Level Pressure 29.95 in    
Wind  
Wind Speed 9 mph ()    
Max Wind Speed 15 mph    
Max Gust Speed -    
Visibility 7.2 miles    
Events      
Averages and records for this station are not official NWS values.
T = Trace of Precipitation, MM = Missing Value Source: Averaged Metar Reports

Daily Weather History Graph

Daily Weather History Graph

Search for Another Location

Airport or City:

Trip Planner

Search our weather history database for the weather conditions in past years. The results will help you decide how hot, cold, wet, or windy it might be!

Date:

Astronomy

Oct. 21, 2012 Rise Set
Actual Time 5:04 AM BRT 5:31 PM BRT
Civil Twilight 4:42 AM BRT 5:53 PM BRT
Nautical Twilight 4:17 AM BRT 6:18 PM BRT
Astronomical Twilight 3:51 AM BRT 6:44 PM BRT
Moon 10:44 AM BRT (10/21) 11:43 PM BRT (10/21)
Length of Visible Light 13h 10m
Length of Day
12h 27m
Waxing Crescent, 44% of the Moon is Illuminated
Oct 21
Waxing Crescent
Oct 22
First Quarter
Oct 29
Full
Nov 6
Last Quarter
Nov 13
New

Hourly Weather History & Observations

Time (BRT) Temp. Heat Index Dew Point Humidity Pressure Visibility Wind Dir Wind Speed Gust Speed Precip Events Conditions
12:00 AM 77 °F - 68 °F 66% 29.97 in 12 mi SE 6.9 mph - -   Partly Cloudy
12:00 AM 77.0 °F - 68.0 °F 74% 29.95 in 6.2 mi SE 6.9 mph - N/A   Scattered Clouds
1:00 AM 77.0 °F - 66.2 °F 69% 29.95 in 6.2 mi ESE 8.1 mph - N/A   Scattered Clouds
2:00 AM 77.0 °F - 68.0 °F 74% 29.95 in 6.2 mi ESE 9.2 mph - N/A   Partly Cloudy
3:00 AM 78 °F - 68 °F 65% 29.94 in 12 mi ESE 6.9 mph - -   Partly Cloudy
3:00 AM 77.0 °F - 68.0 °F 74% 29.92 in 6.2 mi ESE 6.9 mph - N/A   Scattered Clouds
4:00 AM 77.0 °F - 68.0 °F 74% 29.92 in 6.2 mi SE 6.9 mph - N/A   Scattered Clouds
5:00 AM 77.0 °F - 68.0 °F 74% 29.95 in 6.2 mi SE 9.2 mph - N/A   Partly Cloudy
6:00 AM 78.8 °F - 69.8 °F 74% 29.95 in 6.2 mi SE 8.1 mph - N/A   Partly Cloudy
7:00 AM 77.0 °F - 69.8 °F 78% 29.98 in 6.2 mi East 11.5 mph - N/A   Mostly Cloudy
8:00 AM 78.8 °F - 69.8 °F 74% 29.98 in 6.2 mi East 13.8 mph - N/A   Mostly Cloudy
9:00 AM 77 °F - 69 °F 71% 30.00 in 12 mi East 13.8 mph - -   Mostly Cloudy
9:00 AM 77.0 °F - 69.8 °F 78% 29.98 in 6.2 mi East 13.8 mph - N/A   Mostly Cloudy
10:00 AM 80.6 °F 83.9 °F 69.8 °F 70% 29.98 in 6.2 mi East 8.1 mph - N/A   Mostly Cloudy
11:00 AM 80.6 °F 83.2 °F 68.0 °F 65% 29.98 in 6.2 mi East 13.8 mph - N/A   Mostly Cloudy
12:00 PM 81 °F - 67 °F 54% 29.97 in 12 mi East 12.7 mph - -   Overcast
12:00 PM 80.6 °F 83.2 °F 68.0 °F 65% 29.95 in 6.2 mi East 12.7 mph - N/A   Mostly Cloudy
1:00 PM 82.4 °F 85.4 °F 68.0 °F 62% 29.95 in 6.2 mi East 15.0 mph - N/A   Mostly Cloudy
2:00 PM 82.4 °F 84.6 °F 66.2 °F 58% 29.92 in 6.2 mi East 12.7 mph - N/A   Mostly Cloudy
3:00 PM 82.4 °F 85.4 °F 68.0 °F 62% 29.92 in 6.2 mi East 12.7 mph - N/A   Mostly Cloudy
4:00 PM 80.6 °F 82.7 °F 66.2 °F 61% 29.89 in 6.2 mi East 12.7 mph - N/A   Mostly Cloudy
5:00 PM 78.8 °F - 66.2 °F 65% 29.92 in 6.2 mi ESE 10.4 mph - N/A   Mostly Cloudy
6:00 PM 79 °F - 67 °F 57% 29.94 in 12 mi ESE 9.2 mph - -   Partly Cloudy
6:00 PM 78.8 °F - 66.2 °F 65% 29.92 in 6.2 mi ESE 9.2 mph - N/A   Mostly Cloudy
7:00 PM 78.8 °F - 66.2 °F 65% 29.95 in 6.2 mi ESE 6.9 mph - N/A   Partly Cloudy
8:00 PM 78.8 °F - 68.0 °F 69% 29.95 in 6.2 mi East 9.2 mph - N/A   Scattered Clouds
9:00 PM 77.0 °F - 68.0 °F 74% 29.95 in 6.2 mi East 10.4 mph - N/A   Scattered Clouds
10:00 PM 77.0 °F - 66.2 °F 69% 29.95 in 6.2 mi East 9.2 mph - N/A   Mostly Cloudy
11:00 PM 77.0 °F - 66.2 °F 69% 29.95 in 6.2 mi East 11.5 mph - N/A   Mostly Cloudy